This demonstration page uses our WeatherBlox Daily Observations layout. Learn more.

41.55636, -103.73856

Hourly Observations for March 10, 2015

Temp ( °F °C ) Dew Point ( °F °C ) Humidity (%) Winds ( mph kmh ) Pressure ( in mb ) Visibility ( mi km ) Precip ( " mm )
12:53 am 00:53 Clear 31 -0.6 21 -6.1 67 67 Calm 29.94 1014 10 16.0934 0 0
1:53 am 01:53 Clear 28 -2.2 19 -7.2 69 69 N 3 6 29.95 1014 10 16.0934 0 0
2:53 am 02:53 Clear 26 -3.3 20 -6.7 78 78 NNW 5 7 29.95 1014 10 16.0934 0 0
3:53 am 03:53 Clear 24 -4.4 19 -7.2 81 81 WNW 5 7 29.96 1014 10 16.0934 0 0
4:53 am 04:53 Clear 25 -3.9 20 -6.7 81 81 NW 9 15 29.96 1015 10 16.0934 0 0
5:53 am 05:53 Clear 26 -3.3 21 -6.1 81 81 NW 9 15 29.98 1015 10 16.0934 0 0
6:53 am 06:53 Clear 28 -2.2 22 -5.6 78 78 WNW 12 19 30.02 1017 10 16.0934 0 0
7:53 am 07:53 Sunny 32 0 24 -4.4 73 73 NW 8 13 30.05 1018 10 16.0934 0 0
8:53 am 08:53 Sunny 39 3.9 27 -2.8 62 62 WNW 9 15 30.08 1019 10 16.0934 0 0
9:53 am 09:53 Sunny 46 7.8 27 -2.8 47 47 WNW 15 24 30.09 1019 10 16.0934 0 0
10:53 am 10:53 Sunny 53 11.7 28 -2.2 38 38 WNW 14 22 30.08 1019 10 16.0934 0 0
11:53 am 11:53 Sunny 61 16.1 25 -3.9 25 25 WNW 13 20 30.07 1018 10 16.0934 0 0
12:53 pm 12:53 Sunny 64 17.8 22 -5.6 20 20 W 9 15 30.05 1018 10 16.0934 0 0
1:53 pm 13:53 Sunny 66 18.9 18 -7.8 16 16 NNW 14 22 30.05 1018 10 16.0934 0 0
2:53 pm 14:53 Sunny 67 19.4 18 -7.8 15 15 N 10 17 30.04 1017 10 16.0934 0 0
3:53 pm 15:53 Sunny 66 18.9 17 -8.3 15 15 N 3 6 30.05 1018 10 16.0934 0 0
4:53 pm 16:53 Sunny 66 18.9 17 -8.3 15 15 N 8 13 30.05 1018 10 16.0934 0 0
5:53 pm 17:53 Sunny 64 17.8 15 -9.4 15 15 NW 9 15 30.07 1018 10 16.0934 0 0
6:53 pm 18:53 Sunny 56 13.3 17 -8.3 22 22 N 5 7 30.11 1020 10 16.0934 0 0
7:53 pm 19:53 Clear 45 7.2 17 -8.3 33 33 NE 5 7 30.14 1021 10 16.0934 0 0
8:53 pm 20:53 Clear 40 4.4 18 -7.8 41 41 Calm 30.15 1021 10 16.0934 0 0
9:53 pm 21:53 Clear 38 3.3 17 -8.3 43 43 ESE 6 9 30.15 1021 10 16.0934 0 0
10:53 pm 22:53 Clear 37 2.8 18 -7.8 46 46 Calm 30.15 1021 10 16.0934 0 0
11:53 pm 23:53 Clear 31 -0.6 19 -7.2 61 61 ENE 3 6 30.14 1021 10 16.0934 0 0

Powered by AerisWeather